{"data":{"norad_id":37165,"epoch":"2026-09-20T02:30:38.283264Z","epoch_age_seconds":59939,"freshness":"FRESH","line1":"1 37165U 10047A   26263.10460976  .00000419  00000+0  59637-4 0  9993","line2":"2 37165  98.3696 133.6197 0033485 298.4079  61.3759 14.82200180862156","mean_motion":14.8220018,"eccentricity":0.0033485,"inclination_deg":98.3696,"raan_deg":133.6197,"arg_perigee_deg":298.4079,"mean_anomaly_deg":61.3759,"bstar":5.9637e-5,"rev_number":86215,"period_min":97.152869054435,"perigee_km":598.94657060905,"apogee_km":645.82908538213,"semimajor_km":7000.5248279956,"source":"CELESTRAK","updated_at":"2026-09-20T09:00:13.757821Z"}}